{"data":{"norad_id":48079,"intl_designator":"2021-026A","name":"GAOFEN-12 02","alt_names":[],"object_type":"PAYLOAD","status":"ACTIVE","operator":null,"country":"PRC","launch_date":"2021-03-30","launch_site_code":"JSC","launch_vehicle":null,"mission":null,"orbit_class":"UNKNOWN","rcs_meters":null,"size_class":null,"mass_kg":null,"dimensions":null,"purposes":["earth_obs"],"wikipedia_slug":null,"has_3d_model":false,"image_url":null,"decayed_at":null,"tle_current":{"epoch":"2026-09-20T04:40:51.246912Z","epoch_age_seconds":44647,"freshness":"FRESH","line1":"1 48079U 21026A   26263.19503758  .00000217  00000+0  35323-4 0  9995","line2":"2 48079  98.0002 261.0241 0003469 295.3639  64.7214 14.80357327295813","mean_motion":14.80357327,"eccentricity":0.0003469,"inclination_deg":98.0002,"raan_deg":261.0241,"arg_perigee_deg":295.3639,"mean_anomaly_deg":64.7214,"bstar":3.5323e-5,"rev_number":29581,"period_min":97.273811784227,"perigee_km":625.76595687825,"apogee_km":630.6269510286,"semimajor_km":7006.3334539534,"source":"CELESTRAK","updated_at":"2026-09-20T09:00:33.976822Z"}}}